Bodensee (Kressbronn): 4,4°C  -  Teich der Wetterzentrale Bad Schussenried: 5,0°C  
22.01.2020Höhe
ü. NN
ZeitTemperatur (°C)Nieder-
schlag
Luft-
feuchte
Luft-
druck
Wind
StationaktuellMinimumMaximumaktuellMaximum
Aldingen654 m04:26-6,3-7,7 (07:47)-5,7 (15:22)0,0 l/m²92%1037,60,0 km/h (0 Bft) S-SW7,4 km/h (2 Bft) W-NW (13:16)
Allmendingen541 m04:25-3,3-3,3 (04:15)-2,8 (14:25)0,0 l/m²93%1036,64,8 km/h (1 Bft) SO17,7 km/h (3 Bft) O-NO (05:00)
Altshausen574 m04:25-4,3-4,5 (03:50)-3,8 (00:00)0,0 l/m²86%1035,31,6 km/h (1 Bft) SO8,0 km/h (2 Bft) O (00:39)
Amstetten-Reutti663 m04:25-3,8-3,9 (03:35)-3,5 (13:55)0,0 l/m²96%1036,08,0 km/h (2 Bft) SO27,4 km/h (4 Bft) O (05:10)
Amtzell-Grenis677 m04:25-5,4-5,5 (04:20)-4,9 (00:55)0,0 l/m²79%1038,01,6 km/h (1 Bft) O1,6 km/h (1 Bft) O (00:00)
Aulendorf570 m04:25-4,6-4,6 (03:20)-3,7 (00:00)0,0 l/m²94%1036,10,0 km/h (0 Bft) S-SO4,8 km/h (1 Bft) N-NO (01:25)
Bad Krozingen233 m04:25-3,5-3,5 (06:55)-2,1 (15:50)0,0 l/m²95%1037,31,6 km/h (1 Bft) W-NW8,2 km/h (2 Bft) N-NO (16:50)
Bad Saulgau595 m04:25-4,6-4,6 (04:20)-3,9 (14:10)0,0 l/m²94%1035,50,0 km/h (0 Bft) W-NW17,7 km/h (3 Bft) S-SW (05:45)
Bad Saulgau-Lampertsweiler627 m04:25-4,8-4,9 (04:20)-4,0 (00:00)0,0 l/m²91%1038,70,0 km/h (0 Bft) O11,3 km/h (2 Bft) O (04:10)
Bad Schussenried572 m04:25-3,9-3,9 (03:50)-3,2 (00:00)0,0 l/m²97%1035,00,0 km/h (0 Bft) NO4,8 km/h (1 Bft) NO (02:05)
Bergatreute615 m04:25-4,6-4,7 (04:10)-4,1 (00:45)0,0 l/m²97%1036,30,0 km/h (0 Bft) O-SO9,7 km/h (2 Bft) S-SO (00:45)
Biberach (Riss), Boehringer533 m04:30-3,5-3,7 (04:10)-2,9 (00:20)1,0 l/m²99%1034,03,2 km/h (1 Bft) S-SW11,5 km/h (2 Bft) S-SO (00:10)
Biberach (Riss), Realschule553 m04:25-4,2-4,3 (04:15)-3,6 (00:10)0,0 l/m²96%1037,48,0 km/h (2 Bft) S-SO16,1 km/h (3 Bft) W-SW (04:05)
Burgrieden523 m04:25-3,4-3,4 (03:50)-3,0 (00:00)0,0 l/m²91%1036,70,0 km/h (0 Bft) S-SW9,7 km/h (2 Bft) S-SO (03:55)
Burgrieden-Hochstetten510 m04:25-3,3-3,3 (03:50)-2,8 (12:30)0,0 l/m²94%1037,03,2 km/h (1 Bft) S-SW17,7 km/h (3 Bft) O (05:55)
Ebersbach579 m04:25-4,3-4,3 (03:40)-3,6 (00:00)0,0 l/m²96%1037,30,0 km/h (0 Bft) SW8,0 km/h (2 Bft) O (00:20)
Ebersbach-Boos605 m04:25-4,7-4,7 (04:15)-4,0 (00:10)0,0 l/m²97%1037,30,0 km/h (0 Bft) SO0,0 km/h (0 Bft) O-NO (00:00)
Ebersbach-Menzenweiler661 m04:25-4,8-4,9 (04:10)-4,1 (00:05)0,0 l/m²97%1037,31,6 km/h (1 Bft) S8,0 km/h (2 Bft) O (00:25)
Erlenmoos645 m04:25-3,9-3,9 (03:55)-3,3 (00:00)0,0 l/m²93%1036,66,4 km/h (2 Bft) S-SW9,7 km/h (2 Bft) N (01:55)
Ertingen569 m04:25-4,0-4,0 (02:10)-3,6 (00:00)0,0 l/m²96%1036,73,2 km/h (1 Bft) SO8,0 km/h (2 Bft) N (02:00)
Friedrichshafen405 m04:25-2,3-2,3 (08:20)-2,0 (14:45)0,0 l/m²92%1037,46,4 km/h (2 Bft) N19,3 km/h (3 Bft) NO (22:05)
Günzburg443 m04:25-2,6-2,8 (03:25)-2,2 (00:05)0,0 l/m²91%1033,90,0 km/h (0 Bft) S9,7 km/h (2 Bft) NO (00:35)
Hochdorf-Appendorf537 m04:25-4,3-4,4 (04:10)-3,6 (01:00)0,0 l/m²78%1036,44,8 km/h (1 Bft) O-SO12,9 km/h (3 Bft) SO (04:05)
Höchsten802 m04:25-7,3-7,3 (04:15)-4,7 (01:05)0,0 l/m²92%1034,70,0 km/h (0 Bft) W-NW6,4 km/h (2 Bft) N (00:00)
Horgenzell618 m04:25-4,9-5,0 (03:30)-4,4 (01:05)0,0 l/m²95%1035,50,0 km/h (0 Bft) O12,9 km/h (3 Bft) NO (00:10)
Hoßkirch632 m04:25-5,0-5,0 (04:20)-4,3 (00:00)0,0 l/m²95%1035,41,6 km/h (1 Bft) S9,7 km/h (2 Bft) O (01:35)
Isny, Am Dreifingerbach695 m04:25-8,2-8,6 (03:45)-6,0 (00:00)0,0 l/m²93%1036,40,0 km/h (0 Bft) O0,0 km/h (0 Bft) O-NO (04:25)
Isny, Weidachweg706 m04:25-7,1-7,7 (03:05)-6,2 (00:00)0,0 l/m²88%1038,83,2 km/h (1 Bft) S-SW6,4 km/h (2 Bft) N (00:20)
Kappel-Grafenhausen163 m04:20-2,3-3,6 (02:50)-2,3 (14:50)0,0 l/m²93%1034,93,2 km/h (1 Bft) N14,5 km/h (3 Bft) N (15:20)
Kirchberg an der Iller584 m04:25-3,6-3,6 (04:00)-2,9 (05:00)0,0 l/m²87%1025,00,0 km/h (0 Bft) O-SO8,9 km/h (2 Bft) W-NW (05:30)
Kißlegg-Staibshof709 m04:25-5,3-5,3 (03:20)-4,8 (00:00)0,0 l/m²96%1036,80,0 km/h (0 Bft) O0,0 km/h (0 Bft) NO (00:00)
Kressbronn398 m04:28-1,9-3,0 (00:00)-1,8 (03:00)0,0 l/m²89%1036,20,0 km/h (0 Bft) N-NW9,7 km/h (2 Bft) N-NW (00:26)
Kreuzthal-Steinberg-Alpe930 m04:20-1,5-3,2 (01:00)-1,1 (04:20)0,0 l/m²98%1035,00,7 km/h (0 Bft) O-NO4,7 km/h (1 Bft) SO (03:20)
Kreuzthal-Steinberggipfel1040 m04:200,90,2 (03:40)2,4 (02:00)-62%1035,02,9 km/h (1 Bft) SW11,9 km/h (3 Bft) W-SW (00:20)
Kristberg im Montafon (AT)1425 m04:274,83,4 (02:31)5,1 (01:41)0,0 l/m²34%1041,68,6 km/h (2 Bft) N-NO11,9 km/h (3 Bft) N (01:36)
Laupheim500 m04:25-3,4-3,6 (04:00)-3,1 (00:00)0,0 l/m²93%1036,11,6 km/h (1 Bft) S-SW9,7 km/h (2 Bft) W (03:45)
Leutkirch-Heggelbach670 m04:25-5,2-5,3 (03:00)-4,4 (00:00)0,0 l/m²94%1036,00,0 km/h (0 Bft) S-SW0,0 km/h (0 Bft) N (00:00)
Lindau-Insel420 m04:25-1,1-1,5 (08:25)-1,1 (14:35)0,0 l/m²90%1036,68,0 km/h (2 Bft) NO12,9 km/h (3 Bft) W (12:25)
Lindau-Stadt412 m04:25-1,3-1,8 (08:15)-1,3 (12:30)0,0 l/m²91%1036,74,8 km/h (1 Bft) NO12,9 km/h (3 Bft) W (13:00)
Maierhöfen im Allgäu733 m04:25-7,7-8,0 (03:00)-6,7 (00:00)0,0 l/m²93%1037,01,6 km/h (1 Bft) O-SO4,8 km/h (1 Bft) O-SO (01:55)
Maselheim543 m04:25-4,0-4,1 (03:20)-3,7 (14:05)0,0 l/m²94%1036,63,2 km/h (1 Bft) SW19,3 km/h (3 Bft) O (05:15)
Maselheim-Sulmingen548 m04:25-4,1-4,1 (04:10)-3,6 (14:15)0,0 l/m²96%1038,39,7 km/h (2 Bft) W16,1 km/h (3 Bft) O-SO (05:00)
Mietingen-Baltringen528 m04:25-3,8-3,8 (03:55)-3,1 (00:45)0,0 l/m²92%1038,41,6 km/h (1 Bft) W-SW8,0 km/h (2 Bft) S (03:45)
Mindelheim-Apfeltrach620 m04:26-5,0-5,0 (04:22)-3,2 (00:00)0,0 l/m²93%1037,03,2 km/h (1 Bft) SO11,3 km/h (2 Bft) S-SW (03:53)
Mittelbiberach577 m04:28-4,3-4,4 (04:15)-3,8 (01:00)0,0 l/m²93%1037,81,6 km/h (1 Bft) S9,6 km/h (2 Bft) O (04:22)
Neresheim552 m04:01-4,1-4,1 (04:01)-3,6 (00:00)0,0 l/m²100%1033,56,5 km/h (2 Bft) S-SW6,5 km/h (2 Bft) S-SW (04:01)
Neukirch570 m04:25-3,2-3,8 (07:55)-3,1 (15:05)0,0 l/m²95%1036,76,4 km/h (2 Bft) N-NO17,7 km/h (3 Bft) O-NO (06:20)
Ochsenhausen, Birkenstraße613 m04:25-3,9-3,9 (04:10)-3,3 (14:05)0,0 l/m²89%1037,00,0 km/h (0 Bft) O-SO0,0 km/h (0 Bft) N-NW (05:00)
Ochsenhausen, Unt. Wiesen575 m04:25-4,3-4,4 (04:05)-3,7 (00:00)0,0 l/m²95%1038,26,4 km/h (2 Bft) SW11,3 km/h (2 Bft) O (01:40)
Opfenbach-Göritz561 m04:25-4,3-4,3 (04:19)-3,7 (02:12)0,0 l/m²92%1035,06,5 km/h (2 Bft) N6,5 km/h (2 Bft) N (04:09)
Ostrach619 m04:25-3,7-3,7 (04:15)-2,9 (00:00)0,0 l/m²96%1034,93,2 km/h (1 Bft) S-SO8,0 km/h (2 Bft) O-NO (01:20)
Ravensburg, Goethestraße428 m04:35-3,2-3,2 (04:05)-2,3 (00:00)0,0 l/m²93%1036,44,8 km/h (1 Bft) SO11,3 km/h (2 Bft) NO (00:05)
Ravensburg, Springerstraße441 m04:25-2,9-3,0 (03:50)-2,2 (00:00)0,0 l/m²78%1034,10,0 km/h (0 Bft) N-NO2,3 km/h (1 Bft) W-SW (01:15)
Ravensburg-Wernsreute511 m04:25-3,9-4,0 (03:35)-3,1 (14:55)0,0 l/m²95%1039,66,4 km/h (2 Bft) N-NO24,1 km/h (4 Bft) N (20:10)
Reichenbach an der Fils343 m04:25-4,6-4,6 (04:00)-2,7 (00:00)0,0 l/m²88%1038,41,6 km/h (1 Bft) O-NO6,4 km/h (2 Bft) N-NO (02:50)
Reinstetten559 m04:25-3,8-3,8 (03:25)-3,4 (00:05)0,0 l/m²95%1037,111,3 km/h (2 Bft) S12,9 km/h (3 Bft) S-SO (04:10)
Riedlingen530 m04:25-3,8-3,9 (03:15)-3,3 (00:00)0,0 l/m²95%1036,70,0 km/h (0 Bft) SO6,4 km/h (2 Bft) O-SO (02:20)
Rißtissen489 m04:25-2,6-2,6 (02:10)-2,1 (00:00)0,0 l/m²94%1034,30,0 km/h (0 Bft) S6,4 km/h (2 Bft) O-NO (01:20)
Rottweil-Hausen681 m04:25-5,3-5,7 (02:07)-4,3 (00:00)0,0 l/m²90%1037,06,5 km/h (2 Bft) S-SW9,7 km/h (2 Bft) N (03:22)
Schemmerhofen520 m04:25-3,3-3,3 (02:40)-2,8 (00:00)0,0 l/m²96%1036,44,8 km/h (1 Bft) S-SO8,0 km/h (2 Bft) S-SO (00:15)
Silbertal im Montafon (AT)884 m04:25-1,1-3,3 (00:05)-1,1 (04:10)0,0 l/m²95%1040,60,0 km/h (0 Bft) NW1,8 km/h (1 Bft) N (00:06)
Tettnang466 m04:25-2,8-3,3 (00:00)-2,5 (03:05)0,0 l/m²93%1036,76,4 km/h (2 Bft) N9,7 km/h (2 Bft) N (03:55)
Tuttlingen662 m04:21-7,8-7,8 (04:01)-6,2 (00:01)0,0 l/m²77%1034,40,0 km/h (0 Bft) S-SO5,5 km/h (1 Bft) NO (03:41)
Tuttlingen, Möhringer-Vorstadt711 m04:25-6,9-7,0 (04:15)-5,2 (14:55)0,0 l/m²94%1036,40,0 km/h (0 Bft) S11,3 km/h (2 Bft) N (10:55)
Ummendorf547 m04:25-4,4-4,4 (04:25)-3,6 (00:15)0,0 l/m²87%1037,89,7 km/h (2 Bft) S-SW11,3 km/h (2 Bft) O (01:05)
Ummendorf-Fischbach558 m04:25-4,5-4,5 (03:30)-3,9 (02:15)0,0 l/m²87%1037,66,4 km/h (2 Bft) S-SW11,3 km/h (2 Bft) S (00:00)
Waldburg707 m04:25-5,3-5,3 (03:30)-4,9 (00:00)0,0 l/m²95%1036,30,0 km/h (0 Bft) N6,4 km/h (2 Bft) N (00:25)
Waltenhofen im Allgäu720 m04:25-7,4-7,7 (03:40)-6,2 (00:00)0,0 l/m²92%1036,61,6 km/h (1 Bft) NW12,9 km/h (3 Bft) NW (10:00)
Wangen, Hans-Schnitzer-Weg569 m04:25-3,7-3,7 (04:15)-3,0 (01:55)0,0 l/m²67%1035,40,0 km/h (0 Bft) N3,2 km/h (1 Bft) N (00:10)
Wangen, Südring548 m04:25-3,8-3,8 (04:18)-3,2 (01:57)0,0 l/m²93%1036,13,2 km/h (1 Bft) NO9,7 km/h (2 Bft) N (02:07)
Weingarten500 m04:25-3,5-3,5 (03:30)-2,9 (00:10)0,0 l/m²93%1036,69,7 km/h (2 Bft) S9,7 km/h (2 Bft) O (00:30)
Winterlingen785 m04:15-9,4-9,4 (04:15)-7,2 (00:00)0,0 l/m²92%1036,81,8 km/h (1 Bft) SW2,5 km/h (1 Bft) W (04:05)

niederschlagsdatenbank | info | login - erfassung

Sollten Sie Interesse haben, an der Niederschlagsdatenbank teilzunehmen, finden Sie > hier < weitere Informationen.
Datum: . . Kalender
Anmerkung:0,0 = nicht messbarer Niederschlag
 -  = kein Niederschlag
 k  = kumulierter Niederschlag

< 20.04.201922.04.2019 >


Niederschlagswerte vom 21.04.2019    -    derzeit 111 Stationen

Die Niederschlagswerte des gewählten Tages lassen sich durch Klicken auf das Datum sortieren.
Die Angaben sind in l/m².

Station18.04.19.04.20.04.21.04.22.04.23.04.24.04.Bemerkung 21.04.
Aichstetten Ulmenstraße 7-------
Aichstetten-Nestbaum Nestbaum-------
Albbruck Furmisstr. 18-------
Ganzer Tag bewölkt (Hohe Schleierwolken) +24°C Nachts +8°C
Allmendingen Querqueviller Ring 6-------
Amstetten-Reutti Gassenäcker 13-------
Aulendorf Steinenbacher Weg 33-------
Aulendorf-Blönried Heuweg 32-------
Bad Bellingen Rheinstraße 76-------
Bad Buchau Hanfweiher 1-------
Bad Saulgau Walserweg-------
Bad Saulgau-Hochberg Lampertsweiler Straße 12-------
Bad Schussenried Konradstraße-------
Bad Schussenried Lortzingstrasse-------
Bad Schussenried Klosterstraße-------
Bad Schussenried Theodor-Storm-Strasse-------
Bad Schussenried-Hopferbach Unterer Öschweg 16/1-------
Bad Schussenried-Lufthütte Hauptgasse 17-------
Bad Schussenried-Sattenbeuren Ortsstraße 7-------
Bad Schussenried-Schwaigfurt Schwaigfurt 2-------
Bad Waldsee-Haisterkirch Zur Spitzenkapelle 1-------
+4/+23°C, bei harmloser Bewölkung nahezu sommerlich temperiert - zu [weiterlesen...]
Bad Wurzach-Seibranz Kimpflerhof 2 -------
Baienfurt Untere Bergstrasse 7-------
Balzheim Hinterm Liess 19-------
Berg-Kleintobel Kleintobel-------
Biberach Amriswilstrasse-------
Biberach Strölinweg-------
Biberach Erlenweg-------
Biberach Neue Heimat 5-------
Biberach Mittelbergstraße 9-------
Biberach auf dem Lindele-------
Biberach-Bergerhausen Löcherstr.1-------
Bierstetten Schloßbühl 6-------
Blaubeuren-Pappelau Sotzenhauserstr.7-------
Bühlertal Wolfinstraße 16------1,5
Dornstadt-Tomerdingen Maienweg 9-------
Dürnau Dorfäckerweg 5-------
Eberhardzell Lilienweg-------
Ebersbach-Roßwälden Appenwiesen-------
Ehingen Rosenstraße-------
Ehingen Zanderstraße-------
Ehingen Schlaufenbühl-------
Ehingen Schillerstraße-------
Ehingen-Herbertshofen Tobelweg 9-------
Eislingen Albstraße 125------0,0
Erbach-Bach Hauptstraße 24-------
Erlenmoos Haldenweg 15-------
Füramoos Hungersberg 1-------
Gutenzell Kleinser Berg 1-------
Gutenzell-Hürbel Bei der Sägmühle 1-------
Herbertingen Drosselweg-------
Etwas mehr Bewölkung- ansonsten wie gehabt
Herbertingen Hirschstrasse-------
Hochdorf-Schweinhausen Lindenweg 2-------
Hohentengen-Bremen Bremer Halde 4-------
Horgenzell-Ringgenweiler Ringgenweiler 620-------
Hüttisheim Ulmer Weg 2-------
Illerkirchberg Mahdauweg 20-------
Illerrieden-Wangen Am Muckenberg 12-------
Immenstaad Stockwiesen 10-------
Inzigkofen Butzenweg 1-------
Isny Am Dreifingerbach 39-------
Kirchberg Rosenstr. 7-------
Kreuzthal-Steinberg-Alpe Im Kreuzbachthal 85-------
Langenau Wasserstr. 54-1-------
Langenenslingen Schattenweiler Str. 18-------
Leutkirch Unterer Auenweg 25-------
Leutkirch Nachtigallenweg 28-------
Leutkirch-Adrazhofen Bergstraße 20-------
Merklingen Millergasse 9-------
Mietingen Seerosenweg 10-------
Mietingen-Walpertshofen Bussenweg 31-------
Mittelbiberach-Reute Rindenmooser Straße 2-------
Moosburg Käserweg 5-------
Frühlingshaft warm, teils schwach windig.
Münsingen-Rietheim In der Lise 20-------
Neresheim Alfred-Delp-Straße 8-------
Oberdischingen Normannenstraße 7-------
Ochsenhausen Ehrensberger Weg 5-------
Öpfingen Hauptstraße 99-------
Ostrach Uhlandweg-------
Pfaffenhofen-Kadeltshofen Mühlbachstraße 4-------
Pfullendorf Am Schweizersbild -------
Rangendingen Donaustraße 19-------
Ravensburg Bleicherstraße-------
Ravensburg-Schmalegg St.-Magdalena-Ring 42-------
Ravensburg-Wernsreute Wernsreute 25-------
Ravensburg-Weststadt Karl-Erb-Ring 142-------
Regensburg Orleansstraße 3-------
Riedhausen Blütenweg 13-------
Temp. +4,4°C / +23,1°C, Windböen SO 24,1 km/h
Riedlingen Berliner Str. 41-------
Riedlingen-Neufra Panoramaweg-------
Riedlingen-Neufra Riedlinger Strasse0,00,00,00,00,00,00,0
Schelklingen-Gundershofen Schwarzer-Straße 14-------
Temp. zw. -1,5°C und +34,5°C. Nach leichtem Frost am frühen Morgen [weiterlesen...]
Schemmerberg Drosselweg 9-------
Schwörstadt Schulstrasse 19------13,2
Seekirch Haldenberg 7-------
Sigmaringendorf Weingartenstraße 7-------
Tuttlingen-Möhringen Eßlinger Straße-------
Ulm Eberhardtstraße 75-------
Ummendorf Tulpenweg-------
Ummendorf Friedrich-Schiller-Str.-------
Uttenweiler-Ahlen Seekircher Straße 8-------
Vöhringen (Schwarzwald) Drosselweg 3-------
Waldburg Kastanienweg11-------
Wangen-Bergerhöhe Berg 2-------
Warthausen An der Schloßhalde -------
Warthausen Schwabenwiesen -------
Warthausen-Barabein Barabein 20-------
Weingarten Laurastraße-------
+ 4,9 ° C um 7.00 Uhr
Weingarten Hoyerstraße-------
Weingarten Marienstraße-------
Wolfegg-Veesers Veesers 1-------
Wolpertswende Aulendorfer Str. 17-------

Stillgelegte Niederschlagsstationen    -    derzeit 50 Stationen

StationLetzte Meldung18.04.19.04.20.04.21.04.22.04.23.04.24.04.Bemerkung 21.04.
Allmannsweiler Eggatsweilerstr.2802.09.2014-------
Aulendorf-Rugetsweiler Erikaweg 325.07.2013-------
Aulendorf-Zollenreute Imterstraße 1209.02.2019-------
Bad Saulgau Willi-Burth-Straße19.09.2011-------
Bad Saulgau Eichendorffweg28.03.2013-------
Bad Saulgau Seewattenstraße 12815.01.2014-------
Bad Saulgau-Lampertsweiler Valentinstr. 2618.02.2015-------
Bad Schussenried-Steinhausen Drosselgasse 4/126.09.2012-------
Bad Waldsee-Michelwinnanden Michelberg 531.12.2014-------
Bad Waldsee-Osterhofen Hochwaldgasse 406.03.2015-------
Bad Waldsee-Steinach Hofraingasse 1510.11.2013-------
Bad Wurzach-Dietmanns Postweg 519.01.2019-------
Bad Wurzach-Haidgau Wengener Straße 507.10.2012-------
Bad Wurzach-Ziegelbach Ziegelbach-Greut 507.11.2014-------
Bergatreute Bolanden 113.02.2012-------
Betzenweiler Offinger Straße 505.01.2017-------
Burgrieden Am Nonnenberg 328.10.2013-------
Burgrieden-Rot Schmiedgasse 518.09.2013-------
Dettingen a. d. Iller Schleifweg 420.05.2019-------
Eberhardzell Schillerstraße05.07.2010-------
Ehingen Am Elzengraben17.06.2016-------
Gammertingen Schillerstraße 2216.01.2016-------
Griesingen Blumenstraße 906.10.2015-------
Günzburg Erlenbadweg 34 1/231.12.2010-------
Hoßkirch Kirchstraße 805.01.2018-------
Ingoldingen-Grodt Ingoldinger Weg 1919.11.2016-------
Kisslegg Kirchmoosstraße02.05.2011-------
Krauchenwies-Hausen Rosenrain 123.11.2013-------
Kressbronn Irisstraße 410.03.2010-------
Leutkirch-Ottmannshofen Spitalriedstraße 527.07.2012-------
Leutkirch-Rotis Rotis 5/208.05.2016-------
Leutkirch-Wuchzenhofen Untere Kirchstraße 18/119.09.2016-------
Mietingen Hangweg 1530.12.2017-------
Mössingen-Bästenhardt Weissdornweg 721.07.2014-------
Ostrach Heiligenberger Straße19.08.2013-------
Pfullendorf Ringstraße 18.03.2012-------
Ravensburg Olgastraße30.10.2016-------
Seltmans Amselweg 2209.04.2013-------
Stuttgart-Bad Cannstatt Beuthener Str. 6703.02.2013-------
Stuttgart-Möhringen Glashütter Weg 1023.04.2017-------
Stuttgart-Rohr Hirschsprung 307.11.2012-------
Talheim Im Schecken 2121.08.2016-------
Tannheim Eggmannstr. 42 22.10.2017-------
Tettnang-Ramsbach Jahnstr. 24/126.03.2011-------
Tuttlingen-Möhringen Belchenstraße01.01.2015-------
Ummendorf Bergstraße23.10.2017-------
Vogt Mühlwies 1822.05.2015-------
Wangen-Atzenberg Keplerweg 324.02.2019-------
Weingarten Bischof-Sproll-Straße30.06.2011-------
Wilhelmsdorf Riedhauser Straße 28.10.2012-------
Wilhelmsdorf Seefeld20.08.2013-------
Wurmlingen An der Steig 3014.10.2016-------
Die Niederschlagswerte des gewählten Tages lassen sich durch Klicken auf das Datum sortieren.
Die Angaben sind in l/m².

Wetterbeobachtungen Legende:

  • Regen
  • Nieselregen
  • Schneeregen
  • Schnee
  • Graupel
  • Eiskörner
  • Hagel
  • Bodennebel
  • Gewitter
  • Nebelnässe
  • Schneegriesel

Grafische Darstellung der Tagesniederschläge vom 21.04.2019

< 20.04.201922.04.2019 >Monats- und Jahresniederschlag


 
wetterstationen
wetterstationen
- derzeit 80 Stationen
niederschlagsdatenbank
wetterstationen
- kartographische Darstellung
niederschlagsdatenbank
niederschlagsstationen
- derzeit 111 Stationen
niederschlagsdatenbank
niederschlagsstationen
- kartographische Darstellung
 
 
Di. 7.30 Uhr - Mi. 7.30 Uhr (MEZ)
1.Gutenzell
Kleinser Berg 1
3,0 l/m²
 
  treffpunkt & service
--- Anzeigen --------------------------------
zugriffe:
insgesamt: 45.733.484
aktueller monat: 222.044
heute: 169
momentan online: 5
 
 
monatshöchstwert: 653.625
vorheriger monat: 318.382
gestern: 12.706
tageshöchstwert: 51.297
 
wetterwarte süd
 
konradstraße 3
info@wetterwarte-sued.com
roland roth
 
88427 bad schussenried